Weather History for KBCB - April, 2013

Change the Weather History Date:

Tuesday, April 2, 2013

  Actual Average Record
Temperature  
Mean Temperature 38 °F 47 °F  
Max Temperature 48 °F 59 °F 87 °F (2010)
Min Temperature 27 °F 34 °F 21 °F (1968)
Degree Days  
Heating Degree Days 27 18  
Month to date heating degree days 48 37  
Since 1 July heating degree days 4807 4812  
Cooling Degree Days 0 0  
Month to date cooling degree days 0 0  
Year to date cooling degree days 0 0  
Moisture  
Dew Point 22 °F    
Average Humidity 51    
Maximum Humidity 75    
Minimum Humidity 27    
Precipitation  
Precipitation 0.00 in 0.11 in 0.73 in (1957)
Month to date precipitation T 0.23  
Year to date precipitation 12.42 9.76  
Snow  
Snow 0.00 in - - ()
Month to date snowfall 0.0  
Since 1 July snowfall 22.5  
Snow Depth 0.00 in    
Sea Level Pressure  
Sea Level Pressure 30.10 in    
Wind  
Wind Speed 8 mph (WNW)    
Max Wind Speed 14 mph    
Max Gust Speed 23 mph    
Visibility 10 miles    
Events      
T = Trace of Precipitation, MM = Missing Value Source: NWS Daily Summary

Daily Weather History Graph

Daily Weather History Graph

Search for Another Location

Airport or City:

Trip Planner

Search our weather history database for the weather conditions in past years. The results will help you decide how hot, cold, wet, or windy it might be!

Date:

Astronomy

Apr. 02, 2013 Rise Set
Actual Time 7:05 AM EDT 7:45 PM EDT
Civil Twilight 6:39 AM EDT 8:11 PM EDT
Nautical Twilight 6:08 AM EDT 8:42 PM EDT
Astronomical Twilight 5:36 AM EDT 9:14 PM EDT
Moon 1:43 AM EDT (4/2) 12:00 PM EDT (4/2)
Length of Visible Light 13h 32m
Length of Day
12h 39m
Waning Gibbous, 56% of the Moon is Illuminated
Apr 2
Waning Gibbous
Apr 3
Last Quarter
Apr 10
New
Apr 18
First Quarter
Apr 25
Full

Hourly Weather History & Observations

Time (EDT) Temp. Windchill Dew Point Humidity Pressure Visibility Wind Dir Wind Speed Gust Speed Precip Events Conditions
12:15 AM 39.2 °F 34.2 °F 30.2 °F 70% 30.02 in 10.0 mi WNW 6.9 mph 17.3 mph N/A   Mostly Cloudy
12:35 AM 39.2 °F 33.0 °F 30.2 °F 70% 30.03 in 10.0 mi WNW 9.2 mph 17.3 mph N/A   Mostly Cloudy
12:55 AM 39.2 °F 33.6 °F 28.4 °F 65% 30.02 in 10.0 mi WNW 8.1 mph - N/A   Overcast
1:15 AM 37.4 °F 33.8 °F 28.4 °F 70% 30.03 in 10.0 mi West 4.6 mph - N/A   Mostly Cloudy
1:35 AM 37.4 °F 32.8 °F 28.4 °F 70% 30.02 in 10.0 mi WNW 5.8 mph - N/A   Mostly Cloudy
1:55 AM 37.4 °F 31.4 °F 28.4 °F 70% 30.02 in 10.0 mi WNW 8.1 mph - N/A   Scattered Clouds
2:15 AM 37.4 °F 31.4 °F 28.4 °F 70% 30.02 in 10.0 mi WNW 8.1 mph - N/A   Scattered Clouds
2:35 AM 37.4 °F 32.8 °F 28.4 °F 70% 30.03 in 10.0 mi WNW 5.8 mph - N/A   Scattered Clouds
2:55 AM 35.6 °F 29.9 °F 28.4 °F 75% 30.03 in 10.0 mi WNW 6.9 mph - N/A   Scattered Clouds
3:15 AM 35.6 °F 30.7 °F 26.6 °F 70% 30.02 in 10.0 mi WNW 5.8 mph - N/A   Scattered Clouds
3:35 AM 35.6 °F 30.7 °F 28.4 °F 75% 30.03 in 10.0 mi WNW 5.8 mph - N/A   Scattered Clouds
3:55 AM 35.6 °F 30.7 °F 26.6 °F 70% 30.03 in 10.0 mi WNW 5.8 mph - N/A   Clear
4:15 AM 33.8 °F 27.7 °F 24.8 °F 70% 30.04 in 10.0 mi WNW 6.9 mph - N/A   Clear
4:35 AM 35.6 °F 29.2 °F 24.8 °F 65% 30.04 in 10.0 mi NW 8.1 mph - N/A   Mostly Cloudy
4:55 AM 35.6 °F 32.8 °F 24.8 °F 65% 30.05 in 10.0 mi WNW 3.5 mph - N/A   Overcast
5:15 AM 35.6 °F 31.7 °F 24.8 °F 65% 30.06 in 10.0 mi WNW 4.6 mph - N/A   Overcast
5:35 AM 33.8 °F 28.6 °F 23.0 °F 65% 30.06 in 10.0 mi WNW 5.8 mph - N/A   Overcast
5:55 AM 33.8 °F 28.6 °F 23.0 °F 65% 30.07 in 10.0 mi WNW 5.8 mph - N/A   Overcast
6:15 AM 33.8 °F 30.8 °F 23.0 °F 65% 30.07 in 10.0 mi West 3.5 mph - N/A   Overcast
6:35 AM 33.8 °F 29.6 °F 24.8 °F 70% 30.08 in 10.0 mi WNW 4.6 mph - N/A   Overcast
6:55 AM 33.8 °F 28.6 °F 24.8 °F 70% 30.10 in 10.0 mi WNW 5.8 mph - N/A   Overcast
7:15 AM 33.8 °F 27.0 °F 23.0 °F 65% 30.11 in 10.0 mi WNW 8.1 mph - N/A   Scattered Clouds
7:35 AM 33.8 °F 29.6 °F 23.0 °F 65% 30.11 in 10.0 mi NW 4.6 mph - N/A   Mostly Cloudy
7:55 AM 35.6 °F 31.7 °F 23.0 °F 60% 30.12 in 10.0 mi WNW 4.6 mph - N/A   Mostly Cloudy
8:15 AM 35.6 °F 29.2 °F 23.0 °F 60% 30.13 in 10.0 mi WNW 8.1 mph - N/A   Overcast
8:35 AM 35.6 °F 27.1 °F 23.0 °F 60% 30.14 in 10.0 mi WNW 12.7 mph 18.4 mph N/A   Mostly Cloudy
8:55 AM 37.4 °F 30.8 °F 23.0 °F 56% 30.13 in 10.0 mi NW 9.2 mph - N/A   Clear
9:15 AM 37.4 °F 30.3 °F 24.8 °F 60% 30.13 in 10.0 mi WNW 10.4 mph - N/A   Clear
9:35 AM 37.4 °F 29.8 °F 23.0 °F 56% 30.13 in 10.0 mi WNW 11.5 mph 17.3 mph N/A   Scattered Clouds
9:55 AM 39.2 °F 32.0 °F 23.0 °F 52% 30.14 in 10.0 mi WNW 11.5 mph 17.3 mph N/A   Scattered Clouds
10:35 AM 39.2 °F 30.8 °F 24.8 °F 56% 30.15 in 10.0 mi NNW 15.0 mph 21.9 mph N/A   Clear
10:55 AM 41.0 °F 34.7 °F 23.0 °F 49% 30.15 in 10.0 mi WNW 10.4 mph - N/A   Scattered Clouds
11:15 AM 42.8 °F 37.5 °F 23.0 °F 46% 30.15 in 10.0 mi West 9.2 mph 17.3 mph N/A   Scattered Clouds
11:35 AM 42.8 °F 38.0 °F 24.8 °F 49% 30.15 in 10.0 mi West 8.1 mph - N/A   Clear
11:55 AM 42.8 °F 35.8 °F 23.0 °F 46% 30.16 in 10.0 mi NW 13.8 mph 23.0 mph N/A   Clear
12:15 PM 44.6 °F 38.4 °F 24.8 °F 46% 30.15 in 10.0 mi WNW 12.7 mph 24.2 mph N/A   Clear
12:35 PM 44.6 °F 39.7 °F 21.2 °F 39% 30.14 in 10.0 mi West 9.2 mph 18.4 mph N/A   Scattered Clouds
12:55 PM 44.6 °F 38.8 °F 21.2 °F 39% 30.14 in 10.0 mi WNW 11.5 mph 19.6 mph N/A   Clear
1:15 PM 44.6 °F 37.4 °F 21.2 °F 39% 30.13 in 10.0 mi NW 16.1 mph - N/A   Clear
1:35 PM 46.4 °F 40.4 °F 23.0 °F 40% 30.12 in 10.0 mi NW 13.8 mph 19.6 mph N/A   Clear
1:55 PM 46.4 °F 40.7 °F 19.4 °F 34% 30.12 in 10.0 mi WNW 12.7 mph 21.9 mph N/A   Clear
2:15 PM 48.2 °F - 21.2 °F 34% 30.11 in 10.0 mi NW 15.0 mph 23.0 mph N/A   Clear
2:35 PM 48.2 °F - 19.4 °F 32% 30.10 in 10.0 mi NW 8.1 mph 17.3 mph N/A   Clear
2:55 PM 48.2 °F - 19.4 °F 32% 30.10 in 10.0 mi WNW 10.4 mph 18.4 mph N/A   Clear
3:15 PM 48.2 °F - 19.4 °F 32% 30.09 in 10.0 mi WNW 12.7 mph 19.6 mph N/A   Clear
3:35 PM 48.2 °F - 19.4 °F 32% 30.08 in 10.0 mi WNW 10.4 mph 24.2 mph N/A   Clear
3:55 PM 48.2 °F - 19.4 °F 32% 30.07 in 10.0 mi WNW 10.4 mph 19.6 mph N/A   Clear
4:15 PM 48.2 °F - 17.6 °F 30% 30.07 in 10.0 mi WNW 6.9 mph 19.6 mph N/A   Clear
4:35 PM 48.2 °F - 17.6 °F 30% 30.08 in 10.0 mi WNW 10.4 mph - N/A   Clear
4:55 PM 50.0 °F - 17.6 °F 28% 30.08 in 10.0 mi West 10.4 mph 16.1 mph N/A   Clear
5:15 PM 48.2 °F - 19.4 °F 32% 30.08 in 10.0 mi NW 15.0 mph 19.6 mph N/A   Clear
5:35 PM 48.2 °F - 19.4 °F 32% 30.08 in 10.0 mi WNW 8.1 mph 18.4 mph N/A   Clear
5:55 PM 48.2 °F - 17.6 °F 30% 30.08 in 10.0 mi WNW 9.2 mph - N/A   Clear
6:15 PM 48.2 °F - 19.4 °F 32% 30.09 in 10.0 mi WNW 11.5 mph - N/A   Clear
6:35 PM 48.2 °F - 19.4 °F 32% 30.09 in 10.0 mi WNW 10.4 mph - N/A   Clear
6:55 PM 48.2 °F - 17.6 °F 30% 30.10 in 10.0 mi WNW 10.4 mph 19.6 mph N/A   Clear
7:15 PM 46.4 °F 41.1 °F 17.6 °F 32% 30.10 in 10.0 mi WNW 11.5 mph 16.1 mph N/A   Clear
7:35 PM 44.6 °F 39.7 °F 17.6 °F 34% 30.10 in 10.0 mi WNW 9.2 mph - N/A   Clear
7:55 PM 44.6 °F 39.7 °F 17.6 °F 34% 30.11 in 10.0 mi WNW 9.2 mph - N/A   Clear
8:15 PM 42.8 °F 40.1 °F 17.6 °F 36% 30.11 in 10.0 mi WNW 4.6 mph - N/A   Clear
8:35 PM 42.8 °F 40.1 °F 17.6 °F 36% 30.12 in 10.0 mi WNW 4.6 mph - N/A   Clear
8:55 PM 41.0 °F 38.0 °F 17.6 °F 39% 30.12 in 10.0 mi WNW 4.6 mph - N/A   Clear
9:15 PM 41.0 °F 36.4 °F 17.6 °F 39% 30.13 in 10.0 mi NW 6.9 mph - N/A   Clear
9:35 PM 41.0 °F 37.1 °F 17.6 °F 39% 30.13 in 10.0 mi WNW 5.8 mph - N/A   Clear
9:55 PM 41.0 °F 38.0 °F 15.8 °F 36% 30.14 in 10.0 mi West 4.6 mph - N/A   Clear
10:15 PM 39.2 °F 34.2 °F 17.6 °F 42% 30.15 in 10.0 mi NW 6.9 mph - N/A   Clear
10:35 PM 37.4 °F 32.1 °F 19.4 °F 48% 30.15 in 10.0 mi NW 6.9 mph - N/A   Clear
10:55 PM 37.4 °F - 19.4 °F 48% 30.15 in 10.0 mi Calm Calm - N/A   Clear
11:15 PM 35.6 °F - 19.4 °F 52% 30.16 in 10.0 mi Calm Calm - N/A   Clear
11:35 PM 33.8 °F - 19.4 °F 56% 30.16 in 10.0 mi Calm Calm - N/A   Clear
11:55 PM 33.8 °F - 19.4 °F 56% 30.17 in 10.0 mi Calm Calm - N/A   Clear